Weather History for Madison, MN

Change the Weather History Date:

Tuesday, May 21, 2013

  Actual Average (KAQP) Record (KAQP)
Temperature  
Mean Temperature 52 °F -  
Max Temperature 57 °F 66 °F 84 °F (2007)
Min Temperature 48 °F 44 °F 33 °F (2008)
Degree Days  
Heating Degree Days 12    
Growing Degree Days 2 (Base 50)    
Moisture  
Dew Point 52 °F    
Average Humidity 94    
Maximum Humidity 100    
Minimum Humidity 82    
Precipitation  
Precipitation 0.50 in - - ()
Sea Level Pressure  
Sea Level Pressure 29.58 in    
Wind  
Wind Speed 9 mph (ENE)    
Max Wind Speed 18 mph    
Max Gust Speed 23 mph    
Visibility 8 miles    
Events Rain    
Averages and records for this station are not official NWS values.
T = Trace of Precipitation, MM = Missing Value Source: NWS Daily Summary

Daily Weather History Graph

Daily Weather History Graph

Search for Another Location

Airport:

Trip Planner

Search our weather history database for the weather conditions in past years. The results will help you decide how hot, cold, wet, or windy it might be!

Date:

Astronomy

May. 21, 2013 Rise Set
Actual Time 5:49 AM CDT 8:54 PM CDT
Civil Twilight 5:14 AM CDT 9:29 PM CDT
Nautical Twilight 4:29 AM CDT 10:14 PM CDT
Astronomical Twilight 3:35 AM CDT 11:09 PM CDT
Moon 5:00 PM CDT (5/21) 3:28 AM CDT (5/21)
Length of Visible Light 16h 14m
Length of Day
15h 04m
Waxing Gibbous, 84% of the Moon is Illuminated
May 21
Waxing Gibbous
May 24
Full
May 31
Last Quarter
Jun 8
New
Jun 16
First Quarter

Hourly Weather History & Observations

Time (CDT) Temp. Dew Point Humidity Pressure Visibility Wind Dir Wind Speed Gust Speed Precip Events Conditions
12:13 AM 57.2 °F 53.6 °F 88% 29.47 in 10.0 mi SSE 3.5 mph - N/A   Overcast
12:33 AM 57.2 °F 53.6 °F 88% 29.48 in 10.0 mi SE 5.8 mph - N/A   Overcast
12:54 AM 57.2 °F 53.6 °F 88% 29.47 in 10.0 mi South 3.5 mph - N/A   Overcast
1:13 AM 57.2 °F 53.6 °F 88% 29.47 in 10.0 mi SE 4.6 mph - N/A   Overcast
1:33 AM 57.2 °F 53.6 °F 88% 29.47 in 10.0 mi SE 4.6 mph - N/A   Overcast
1:54 AM 57.2 °F 51.8 °F 82% 29.47 in 10.0 mi Calm Calm - N/A   Overcast
2:14 AM 57.2 °F 51.8 °F 82% 29.47 in 10.0 mi East 4.6 mph - N/A   Overcast
2:34 AM 55.4 °F 51.8 °F 88% 29.46 in 10.0 mi East 4.6 mph - N/A   Overcast
2:54 AM 55.4 °F 51.8 °F 88% 29.47 in 10.0 mi East 4.6 mph - N/A   Overcast
3:13 AM 55.4 °F 53.6 °F 94% 29.46 in 10.0 mi East 3.5 mph - N/A   Overcast
3:34 AM 55.4 °F 53.6 °F 94% 29.47 in 7.0 mi East 3.5 mph - N/A   Scattered Clouds
3:53 AM 55.4 °F 53.6 °F 94% 29.47 in 7.0 mi East 3.5 mph - N/A   Mostly Cloudy
4:14 AM 55.4 °F 53.6 °F 94% 29.47 in 5.0 mi Calm Calm - N/A   Mostly Cloudy
4:34 AM 55.4 °F 53.6 °F 94% 29.47 in 5.0 mi ESE 3.5 mph - N/A   Scattered Clouds
4:53 AM 55.4 °F 53.6 °F 94% 29.47 in 3.0 mi East 3.5 mph - N/A Rain Light Rain
5:14 AM 55.4 °F 53.6 °F 94% 29.47 in 3.0 mi NE 4.6 mph - N/A   Drizzle
5:34 AM 55.4 °F 55.4 °F 100% 29.48 in 2.5 mi East 4.6 mph - N/A   Drizzle
5:53 AM 57.2 °F 55.4 °F 94% 29.48 in 2.5 mi ENE 3.5 mph - N/A   Drizzle
6:14 AM 57.2 °F 55.4 °F 94% 29.48 in 2.5 mi Calm Calm - N/A   Drizzle
6:34 AM 57.2 °F 55.4 °F 94% 29.49 in 5.0 mi ENE 11.5 mph 18.4 mph N/A Rain Light Rain
6:53 AM 55.4 °F 55.4 °F 100% 29.49 in 7.0 mi ENE 12.7 mph - 0.01 in Rain Light Rain
7:14 AM 55.4 °F 53.6 °F 94% 29.49 in 7.0 mi ENE 13.8 mph - N/A Rain Light Rain
7:34 AM 55.4 °F 53.6 °F 94% 29.50 in 10.0 mi ENE 11.5 mph - 0.01 in Rain Rain
7:53 AM 53.6 °F 53.6 °F 100% 29.50 in 5.0 mi ENE 15.0 mph - 0.01 in Rain Rain
8:14 AM 53.6 °F 51.8 °F 94% 29.51 in 7.0 mi ENE 12.7 mph - 0.01 in Rain Light Rain
8:34 AM 53.6 °F 51.8 °F 94% 29.51 in 5.0 mi ENE 16.1 mph - 0.01 in Rain Light Rain
8:53 AM 53.6 °F 51.8 °F 94% 29.52 in 7.0 mi ENE 15.0 mph 19.6 mph 0.01 in Rain Light Rain
9:14 AM 53.6 °F 51.8 °F 94% 29.53 in 7.0 mi ENE 18.4 mph - N/A Rain Light Rain
9:33 AM 53.6 °F 51.8 °F 94% 29.53 in 5.0 mi ENE 13.8 mph - N/A   Light Drizzle
9:53 AM 53.6 °F 51.8 °F 94% 29.53 in 5.0 mi ENE 18.4 mph - 0.01 in Rain Rain
10:14 AM 53.6 °F 51.8 °F 94% 29.54 in 4.0 mi ENE 15.0 mph - N/A Rain Light Rain
10:33 AM 53.6 °F 53.6 °F 100% 29.54 in 4.0 mi ENE 16.1 mph - 0.02 in Rain Light Rain
10:53 AM 53.6 °F 53.6 °F 100% 29.55 in 3.0 mi ENE 15.0 mph - 0.03 in Rain Light Rain
11:14 AM 53.6 °F 53.6 °F 100% 29.55 in 4.0 mi ENE 15.0 mph - 0.01 in Rain Light Rain
11:33 AM 55.4 °F 53.6 °F 94% 29.55 in 5.0 mi ENE 12.7 mph - 0.02 in Rain Light Rain
11:53 AM 55.4 °F 53.6 °F 94% 29.56 in 7.0 mi ENE 15.0 mph - 0.03 in Rain Light Rain
12:14 PM 53.6 °F 53.6 °F 100% 29.56 in 5.0 mi ENE 17.3 mph 23.0 mph N/A Rain Rain
12:33 PM 53.6 °F 53.6 °F 100% 29.57 in 7.0 mi ENE 15.0 mph - N/A   Light Drizzle
12:53 PM 53.6 °F 53.6 °F 100% 29.58 in 5.0 mi ENE 15.0 mph - N/A   Drizzle
1:14 PM 53.6 °F 53.6 °F 100% 29.59 in 10.0 mi ENE 13.8 mph - 0.01 in   Drizzle
1:33 PM 53.6 °F 53.6 °F 100% 29.59 in 10.0 mi NE 15.0 mph - 0.01 in   Light Drizzle
1:54 PM 53.6 °F 51.8 °F 94% 29.60 in 10.0 mi NE 15.0 mph - 0.02 in Rain Light Rain
2:14 PM 53.6 °F 51.8 °F 94% 29.60 in 10.0 mi NE 13.8 mph - 0.02 in Rain Light Rain
2:33 PM 53.6 °F 51.8 °F 94% 29.61 in 10.0 mi NE 16.1 mph - 0.03 in Rain Light Rain
2:54 PM 51.8 °F 51.8 °F 100% 29.62 in 7.0 mi NNE 12.7 mph - 0.05 in Rain Light Rain
3:14 PM 51.8 °F 51.8 °F 100% 29.63 in 7.0 mi NE 12.7 mph 18.4 mph 0.01 in Rain Rain
3:33 PM 51.8 °F 51.8 °F 100% 29.64 in 7.0 mi NE 13.8 mph - 0.02 in Rain Light Rain
3:54 PM 51.8 °F 51.8 °F 100% 29.64 in 7.0 mi NE 10.4 mph - 0.03 in Rain Light Rain
4:14 PM 51.8 °F 51.8 °F 100% 29.65 in 7.0 mi NE 12.7 mph - 0.01 in Rain Light Rain
4:33 PM 51.8 °F 51.8 °F 100% 29.66 in 5.0 mi NNE 12.7 mph 16.1 mph 0.05 in Rain Rain
4:54 PM 51.8 °F 50.0 °F 94% 29.67 in 10.0 mi NE 15.0 mph - 0.07 in Rain Light Rain
5:14 PM 51.8 °F 50.0 °F 94% 29.67 in 10.0 mi NE 15.0 mph - 0.02 in Rain Light Rain
5:33 PM 51.8 °F 50.0 °F 94% 29.67 in 10.0 mi NE 12.7 mph - 0.04 in Rain Light Rain
5:54 PM 51.8 °F 50.0 °F 94% 29.67 in 10.0 mi NE 11.5 mph - 0.07 in Rain Rain
6:14 PM 51.8 °F 50.0 °F 94% 29.67 in 10.0 mi NE 13.8 mph - 0.01 in Rain Light Rain
6:33 PM 51.8 °F 50.0 °F 94% 29.67 in 10.0 mi NE 15.0 mph - 0.01 in Rain Light Rain
6:54 PM 51.8 °F 51.8 °F 100% 29.67 in 10.0 mi NNE 15.0 mph - 0.02 in Rain Light Rain
7:14 PM 51.8 °F 50.0 °F 94% 29.68 in 10.0 mi NE 18.4 mph - N/A Rain Light Rain
7:33 PM 51.8 °F 50.0 °F 94% 29.68 in 10.0 mi NE 17.3 mph - N/A   Overcast
7:54 PM 51.8 °F 48.2 °F 88% 29.69 in 10.0 mi NE 15.0 mph - N/A   Overcast
8:14 PM 51.8 °F 46.4 °F 82% 29.70 in 10.0 mi NE 12.7 mph - N/A   Overcast
8:33 PM 51.8 °F 46.4 °F 82% 29.70 in 10.0 mi NE 15.0 mph 20.7 mph N/A Rain Light Rain
8:54 PM 50.0 °F 46.4 °F 87% 29.71 in 10.0 mi NE 17.3 mph - 0.02 in Rain Light Rain
9:14 PM 50.0 °F 46.4 °F 87% 29.72 in 10.0 mi NE 15.0 mph 18.4 mph 0.01 in Rain Light Rain
9:33 PM 50.0 °F 46.4 °F 87% 29.73 in 10.0 mi NE 10.4 mph - 0.02 in Rain Light Rain
9:54 PM 50.0 °F 46.4 °F 87% 29.75 in 10.0 mi NE 9.2 mph - 0.04 in Rain Light Rain
10:13 PM 50.0 °F 46.4 °F 87% 29.75 in 10.0 mi NE 16.1 mph - 0.02 in Rain Light Rain
10:33 PM 48.2 °F 46.4 °F 93% 29.76 in 10.0 mi NE 13.8 mph - 0.03 in Rain Light Rain
10:53 PM 48.2 °F 46.4 °F 93% 29.76 in 10.0 mi NE 10.4 mph - 0.05 in Rain Light Rain
11:13 PM 48.2 °F 46.4 °F 93% 29.76 in 10.0 mi NE 10.4 mph - 0.01 in Rain Light Rain
11:34 PM 48.2 °F 46.4 °F 93% 29.76 in 10.0 mi NE 11.5 mph - 0.02 in Rain Light Rain
11:53 PM 48.2 °F 46.4 °F 93% 29.76 in 10.0 mi NE 10.4 mph - 0.03 in   Drizzle